RYR4DB LZKZ-EGPF

Flight info

Callsign RYR4DB
Flight time N/A
Altitude 36000
Route RAZEC DCT SUDOL L619 NUDRO T710 SUBIX DCT PITEN L619 ELSOB DCT GREFI DCT BADGA DCT SUSIS DCT GOSAM
Aircraft B738/M-SDE2E3FGHIRWXY/LB1

Departure

Time N/A
Airport Košice International Airport (LZKZ)

Arrival

Time 2026-04-28 15:23
Airport Glasgow Airport (EGPF)
Time Latitude Longitude Altitude Speed Heading
2026-04-28 13:50 49.48351 20.47713 23900 ft 422 kts 311°
2026-04-28 13:50 49.50314 20.44380 24214 ft 424 kts 311°
2026-04-28 13:50 49.52285 20.41028 24601 ft 424 kts 311°
2026-04-28 13:50 49.54268 20.37654 24941 ft 425 kts 311°
2026-04-28 13:51 49.56249 20.34276 25240 ft 426 kts 310°
2026-04-28 13:51 49.58238 20.30881 25543 ft 427 kts 310°
2026-04-28 13:51 49.60233 20.27470 25842 ft 428 kts 310°
2026-04-28 13:51 49.62202 20.24101 26130 ft 428 kts 310°
2026-04-28 13:52 49.64190 20.20695 26491 ft 426 kts 310°
2026-04-28 13:52 49.66162 20.17311 26917 ft 424 kts 310°
2026-04-28 13:52 49.68133 20.13926 27303 ft 422 kts 310°
2026-04-28 13:52 49.70092 20.10557 27696 ft 420 kts 310°
2026-04-28 13:53 49.72042 20.07197 28107 ft 418 kts 310°
2026-04-28 13:53 49.73979 20.03856 28535 ft 416 kts 310°
2026-04-28 13:53 49.75901 20.00538 28982 ft 413 kts 310°
2026-04-28 13:53 49.77814 19.97229 29371 ft 412 kts 310°
2026-04-28 13:54 49.79720 19.93929 29780 ft 410 kts 309°
2026-04-28 13:54 49.81617 19.90640 30205 ft 408 kts 309°
2026-04-28 13:54 49.83501 19.87370 30552 ft 406 kts 309°
2026-04-28 13:54 49.85383 19.84097 30751 ft 408 kts 309°
2026-04-28 13:55 49.87272 19.80808 30995 ft 408 kts 309°
2026-04-28 13:55 49.89153 19.77532 31328 ft 406 kts 309°
2026-04-28 13:55 49.91032 19.74253 31628 ft 405 kts 309°
2026-04-28 13:55 49.92907 19.70976 31892 ft 406 kts 309°
2026-04-28 13:56 49.94781 19.67698 32105 ft 406 kts 309°
2026-04-28 13:56 49.96655 19.64417 32375 ft 405 kts 309°
2026-04-28 13:56 49.98521 19.61143 32637 ft 405 kts 309°
2026-04-28 13:56 50.00389 19.57864 32874 ft 405 kts 309°
2026-04-28 13:57 50.02252 19.54588 33120 ft 404 kts 309°
2026-04-28 13:57 50.04086 19.51359 33355 ft 404 kts 309°
2026-04-28 13:57 50.05949 19.48075 33586 ft 404 kts 309°
2026-04-28 13:57 50.07809 19.44792 33823 ft 404 kts 309°
2026-04-28 13:58 50.09664 19.41514 34067 ft 403 kts 309°
2026-04-28 13:58 50.11515 19.38240 34286 ft 403 kts 309°
2026-04-28 13:58 50.13369 19.34955 34450 ft 404 kts 309°
2026-04-28 13:58 50.15223 19.31666 34591 ft 405 kts 309°
2026-04-28 13:59 50.17086 19.28357 34750 ft 405 kts 309°
2026-04-28 13:59 50.18941 19.25057 34925 ft 405 kts 309°
2026-04-28 13:59 50.20807 19.21734 35087 ft 406 kts 310°
2026-04-28 13:59 50.22675 19.18404 35140 ft 409 kts 310°
2026-04-28 14:00 50.26428 19.11699 35537 ft 407 kts 310°
2026-04-28 14:00 50.28280 19.08385 35993 ft 400 kts 310°
2026-04-28 14:00 50.30100 19.05124 36248 ft 398 kts 310°
2026-04-28 14:01 50.33743 18.98580 36261 ft 405 kts 310°
2026-04-28 14:01 50.37463 18.91882 36268 ft 411 kts 310°
2026-04-28 14:02 50.41224 18.85093 36269 ft 414 kts 310°
2026-04-28 14:02 50.45000 18.78260 36251 ft 415 kts 309°
2026-04-28 14:03 50.48787 18.71388 36258 ft 416 kts 309°
2026-04-28 14:03 50.52572 18.64501 36259 ft 416 kts 309°
2026-04-28 14:04 50.56348 18.57612 36265 ft 416 kts 310°
2026-04-28 14:04 50.60125 18.50701 36263 ft 415 kts 310°
2026-04-28 14:05 50.63247 18.44977 36263 ft 415 kts 309°
2026-04-28 14:05 50.66867 18.37924 36268 ft 413 kts 305°
2026-04-28 14:06 50.70184 18.30532 36273 ft 413 kts 305°
2026-04-28 14:06 50.73518 18.23158 36271 ft 412 kts 306°
2026-04-28 14:07 50.76955 18.15918 36279 ft 412 kts 307°
2026-04-28 14:07 50.80444 18.08734 36258 ft 412 kts 307°
2026-04-28 14:08 50.83916 18.01538 36269 ft 412 kts 307°
2026-04-28 14:08 50.87380 17.94308 36284 ft 412 kts 306°
2026-04-28 14:09 50.90836 17.87060 36318 ft 413 kts 307°
2026-04-28 14:09 50.94280 17.79817 36298 ft 414 kts 307°
2026-04-28 14:10 50.97738 17.72527 36287 ft 414 kts 307°
2026-04-28 14:10 51.01190 17.65227 36279 ft 414 kts 307°
2026-04-28 14:11 51.04643 17.57906 36290 ft 414 kts 306°
2026-04-28 14:11 51.08090 17.50575 36295 ft 414 kts 306°
2026-04-28 14:12 51.11536 17.43227 36292 ft 414 kts 306°
2026-04-28 14:12 51.14983 17.35857 36295 ft 415 kts 306°
2026-04-28 14:13 51.18823 17.29023 36304 ft 415 kts 316°
2026-04-28 14:13 51.23102 17.22814 36303 ft 416 kts 316°
2026-04-28 14:14 51.27357 17.16532 36304 ft 417 kts 316°
2026-04-28 14:14 51.31479 17.10016 36297 ft 417 kts 308°
2026-04-28 14:15 51.34818 17.02509 36299 ft 417 kts 305°
2026-04-28 14:15 51.38151 16.94918 36288 ft 417 kts 305°
2026-04-28 14:16 51.41509 16.87329 36304 ft 417 kts 305°
2026-04-28 14:16 51.44866 16.79742 36308 ft 418 kts 305°
2026-04-28 14:17 51.48223 16.72122 36311 ft 418 kts 305°
2026-04-28 14:17 51.51565 16.64464 36312 ft 419 kts 305°
2026-04-28 14:18 51.54900 16.56790 36285 ft 419 kts 305°
2026-04-28 14:18 51.58234 16.49104 36301 ft 419 kts 305°
2026-04-28 14:19 51.61553 16.41433 36338 ft 420 kts 305°
2026-04-28 14:19 51.64890 16.33699 36323 ft 421 kts 305°
2026-04-28 14:20 51.68238 16.25929 36313 ft 422 kts 305°
2026-04-28 14:20 51.71578 16.18166 36284 ft 422 kts 305°
2026-04-28 14:21 51.74917 16.10378 36303 ft 422 kts 305°
2026-04-28 14:21 51.78252 16.02573 36317 ft 422 kts 305°
2026-04-28 14:22 51.81564 15.94799 36312 ft 423 kts 305°
2026-04-28 14:22 51.84899 15.86949 36316 ft 423 kts 305°
2026-04-28 14:23 51.88233 15.79078 36317 ft 423 kts 305°
2026-04-28 14:23 51.91563 15.71193 36311 ft 424 kts 305°
2026-04-28 14:24 51.94883 15.63306 36319 ft 424 kts 305°
2026-04-28 14:24 51.98205 15.55389 36342 ft 425 kts 305°
2026-04-28 14:25 52.01529 15.47444 36327 ft 426 kts 305°
2026-04-28 14:25 52.04857 15.39464 36318 ft 426 kts 305°
2026-04-28 14:26 52.08155 15.31532 36317 ft 426 kts 305°
2026-04-28 14:26 52.11470 15.23532 36314 ft 426 kts 305°
2026-04-28 14:27 52.14780 15.15521 36313 ft 427 kts 305°
2026-04-28 14:27 52.18071 15.07531 36323 ft 427 kts 304°
2026-04-28 14:28 52.21377 14.99481 36324 ft 427 kts 304°
2026-04-28 14:28 52.24677 14.91417 36308 ft 427 kts 304°
2026-04-28 14:29 52.27973 14.83338 36329 ft 428 kts 304°
2026-04-28 14:29 52.31249 14.75284 36324 ft 428 kts 304°
2026-04-28 14:30 52.34541 14.67164 36332 ft 429 kts 305°
2026-04-28 14:30 52.37795 14.58957 36324 ft 430 kts 301°
2026-04-28 14:31 52.40124 14.49903 36333 ft 432 kts 292°
2026-04-28 14:31 52.42224 14.40676 36336 ft 432 kts 292°
2026-04-28 14:32 52.44341 14.31440 36332 ft 433 kts 292°
2026-04-28 14:32 52.46469 14.22201 36338 ft 433 kts 293°
2026-04-28 14:33 52.48580 14.13033 36337 ft 433 kts 292°
2026-04-28 14:33 52.50703 14.03776 36316 ft 433 kts 293°
2026-04-28 14:34 52.53877 13.89861 36338 ft 434 kts 292°
2026-04-28 14:35 52.55988 13.80548 36335 ft 435 kts 292°
2026-04-28 14:35 52.58095 13.71214 36335 ft 435 kts 292°
2026-04-28 14:36 52.60193 13.61879 36336 ft 436 kts 292°
2026-04-28 14:36 52.62289 13.52510 36324 ft 436 kts 292°
2026-04-28 14:37 52.64379 13.43128 36333 ft 437 kts 292°
2026-04-28 14:37 52.66467 13.33713 36331 ft 438 kts 292°
2026-04-28 14:38 52.68523 13.24397 36334 ft 438 kts 292°
2026-04-28 14:38 52.70546 13.15191 36299 ft 438 kts 292°
2026-04-28 14:39 52.72618 13.05720 36324 ft 439 kts 292°
2026-04-28 14:39 52.74685 12.96228 36334 ft 440 kts 292°
2026-04-28 14:40 52.76705 12.86908 36324 ft 441 kts 292°
2026-04-28 14:40 52.78765 12.77361 36326 ft 441 kts 292°
2026-04-28 14:41 52.80817 12.67804 36303 ft 441 kts 292°
2026-04-28 14:41 52.82865 12.58225 36322 ft 442 kts 292°
2026-04-28 14:42 52.84907 12.48625 36329 ft 443 kts 292°
2026-04-28 14:42 52.91886 12.15484 36312 ft 445 kts 291°
2026-04-28 14:43 52.99895 11.76503 36341 ft 447 kts 289°
2026-04-28 14:43 53.08794 11.38278 36360 ft 444 kts 303°
2026-04-28 14:44 53.20681 11.01945 36345 ft 448 kts 301°
2026-04-28 14:44 53.32435 10.65386 36341 ft 451 kts 301°
2026-04-28 14:45 53.44092 10.28523 36318 ft 453 kts 301°
2026-04-28 14:45 53.55560 9.90915 36383 ft 456 kts 300°
2026-04-28 14:46 53.66989 9.52772 36376 ft 454 kts 305°
2026-04-28 14:46 53.80922 9.17619 36359 ft 453 kts 308°
2026-04-28 14:47 53.94588 8.81606 36349 ft 455 kts 308°
2026-04-28 14:47 54.08236 8.45298 36353 ft 456 kts 308°
2026-04-28 14:48 54.21807 8.08613 36395 ft 458 kts 308°
2026-04-28 14:48 54.35333 7.71503 36399 ft 459 kts 308°
2026-04-28 14:49 54.48746 7.34147 36403 ft 460 kts 308°
2026-04-28 14:49 54.62072 6.96457 36386 ft 460 kts 308°
2026-04-28 14:50 54.75200 6.58758 36437 ft 461 kts 307°
2026-04-28 14:50 54.88326 6.20472 36448 ft 461 kts 307°
2026-04-28 14:51 55.01172 5.81756 36426 ft 468 kts 300°
2026-04-28 14:51 55.09838 5.38484 36412 ft 474 kts 296°
2026-04-28 14:52 55.17241 5.02419 36486 ft 473 kts 296°
2026-04-28 14:52 55.25938 4.58909 36454 ft 473 kts 296°
2026-04-28 14:53 55.34484 4.15208 36463 ft 474 kts 295°
2026-04-28 14:53 55.42900 3.71169 36460 ft 476 kts 295°
2026-04-28 14:54 55.51172 3.26857 36451 ft 476 kts 295°
2026-04-28 14:54 55.59294 2.82304 36480 ft 476 kts 294°
2026-04-28 14:55 55.63288 2.35650 36510 ft 494 kts 274°
2026-04-28 14:55 55.63023 1.86919 36487 ft 495 kts 275°
2026-04-28 14:56 55.62831 1.38148 36494 ft 496 kts 274°
2026-04-28 14:56 55.62420 0.89272 36489 ft 497 kts 274°
2026-04-28 14:57 55.61819 0.40582 36486 ft 498 kts 273°
2026-04-28 14:57 55.61018 -0.08464 36481 ft 499 kts 272°
2026-04-28 14:58 55.61587 -0.57174 36528 ft 492 kts 283°
2026-04-28 14:58 55.64731 -1.03975 36511 ft 494 kts 281°
2026-04-28 14:59 55.65399 -1.16079 36489 ft 494 kts 280°
2026-04-28 14:59 55.66068 -1.28177 36508 ft 493 kts 280°
2026-04-28 15:00 55.66736 -1.40275 36512 ft 493 kts 280°
2026-04-28 15:00 55.67397 -1.52390 36002 ft 491 kts 280°
2026-04-28 15:00 55.67721 -1.58410 35252 ft 492 kts 280°
2026-04-28 15:01 55.68041 -1.64431 34661 ft 489 kts 280°
2026-04-28 15:01 55.68356 -1.70410 33839 ft 486 kts 280°
2026-04-28 15:01 55.68666 -1.76360 33181 ft 485 kts 279°
2026-04-28 15:01 55.68975 -1.82313 32459 ft 486 kts 279°
2026-04-28 15:02 55.69282 -1.88283 31724 ft 487 kts 279°
2026-04-28 15:02 55.69590 -1.94304 30776 ft 493 kts 279°
2026-04-28 15:02 55.69897 -2.00367 29879 ft 495 kts 279°
2026-04-28 15:02 55.70197 -2.06391 29004 ft 496 kts 278°
2026-04-28 15:03 55.70496 -2.12478 28141 ft 496 kts 278°
2026-04-28 15:03 55.70792 -2.18581 27242 ft 497 kts 278°
2026-04-28 15:03 55.71086 -2.24682 26310 ft 498 kts 278°
2026-04-28 15:03 55.71376 -2.30782 25677 ft 493 kts 278°
2026-04-28 15:04 55.71660 -2.36822 25041 ft 489 kts 278°
2026-04-28 15:04 55.71938 -2.42798 24398 ft 485 kts 278°
2026-04-28 15:04 55.72212 -2.48739 23662 ft 482 kts 278°
2026-04-28 15:04 55.72482 -2.54641 22959 ft 478 kts 278°
2026-04-28 15:05 55.72747 -2.60482 22298 ft 473 kts 278°
2026-04-28 15:05 55.73006 -2.66266 21661 ft 468 kts 278°
2026-04-28 15:05 55.73259 -2.71993 21019 ft 463 kts 278°
2026-04-28 15:05 55.73508 -2.77662 20401 ft 459 kts 278°
2026-04-28 15:06 55.73753 -2.83293 19771 ft 455 kts 278°
2026-04-28 15:06 55.73993 -2.88885 19169 ft 452 kts 278°
2026-04-28 15:06 55.74230 -2.94433 18508 ft 449 kts 278°
2026-04-28 15:06 55.74462 -2.99941 17839 ft 446 kts 278°
2026-04-28 15:07 55.74690 -3.05419 17198 ft 443 kts 278°
2026-04-28 15:07 55.74913 -3.10834 16605 ft 438 kts 277°
2026-04-28 15:07 55.75132 -3.16201 16002 ft 434 kts 277°
2026-04-28 15:07 55.75345 -3.21525 15400 ft 430 kts 277°
2026-04-28 15:08 55.75553 -3.26739 14829 ft 427 kts 277°
2026-04-28 15:08 55.75759 -3.31974 14235 ft 424 kts 277°
2026-04-28 15:08 55.75963 -3.37178 13570 ft 420 kts 276°
2026-04-28 15:08 55.76162 -3.42332 12952 ft 416 kts 276°
2026-04-28 15:09 55.76357 -3.47432 12367 ft 412 kts 276°
2026-04-28 15:09 55.76547 -3.52486 11836 ft 407 kts 276°
2026-04-28 15:09 55.76729 -3.57395 11712 ft 390 kts 276°
2026-04-28 15:09 55.76847 -3.60603 11588 ft 381 kts 276°
2026-04-28 15:10 55.77069 -3.66694 11380 ft 365 kts 276°
2026-04-28 15:10 55.77229 -3.71130 11225 ft 354 kts 276°
2026-04-28 15:10 55.77383 -3.75433 11066 ft 344 kts 276°
2026-04-28 15:10 55.77532 -3.79610 10925 ft 334 kts 276°
2026-04-28 15:11 55.77675 -3.83682 10788 ft 325 kts 276°
2026-04-28 15:11 55.77814 -3.87638 10656 ft 316 kts 276°
2026-04-28 15:11 55.77946 -3.91483 10530 ft 308 kts 276°
2026-04-28 15:11 55.78075 -3.95229 10450 ft 298 kts 275°
2026-04-28 15:12 55.78010 -3.98850 10239 ft 291 kts 264°
2026-04-28 15:12 55.77708 -4.02391 9765 ft 290 kts 261°
2026-04-28 15:12 55.77359 -4.05913 9307 ft 289 kts 261°
2026-04-28 15:12 55.77013 -4.09424 8875 ft 287 kts 261°
2026-04-28 15:13 55.76682 -4.12894 8491 ft 284 kts 261°
2026-04-28 15:13 55.76368 -4.16301 8074 ft 282 kts 261°
2026-04-28 15:13 55.76059 -4.19729 7656 ft 280 kts 261°
2026-04-28 15:13 55.75757 -4.23122 7284 ft 277 kts 262°
2026-04-28 15:14 55.75460 -4.26490 6867 ft 275 kts 261°
2026-04-28 15:14 55.75164 -4.29849 6414 ft 275 kts 261°
2026-04-28 15:14 55.74872 -4.33182 6037 ft 273 kts 262°
2026-04-28 15:14 55.74580 -4.36508 5557 ft 273 kts 262°
2026-04-28 15:15 55.74287 -4.39840 5203 ft 271 kts 262°
2026-04-28 15:15 55.74095 -4.42028 4973 ft 271 kts 262°
2026-04-28 15:15 55.73706 -4.46425 4722 ft 265 kts 261°
2026-04-28 15:15 55.73423 -4.49614 4592 ft 258 kts 262°
2026-04-28 15:16 55.73147 -4.52721 4461 ft 252 kts 262°
2026-04-28 15:16 55.72878 -4.55737 4376 ft 244 kts 262°
2026-04-28 15:16 55.72614 -4.58672 4255 ft 238 kts 262°
2026-04-28 15:16 55.72356 -4.61554 4052 ft 234 kts 262°
2026-04-28 15:17 55.72100 -4.64376 3826 ft 229 kts 262°
2026-04-28 15:17 55.72147 -4.67090 3514 ft 222 kts 295°
2026-04-28 15:17 55.73153 -4.68923 3338 ft 200 kts 345°
2026-04-28 15:17 55.74454 -4.68780 3312 ft 191 kts 33°
2026-04-28 15:18 55.75219 -4.66983 3188 ft 182 kts 74°
2026-04-28 15:18 55.75738 -4.64948 2879 ft 183 kts 48°
2026-04-28 15:18 55.76631 -4.63427 2708 ft 175 kts 51°
2026-04-28 15:18 55.77348 -4.61743 2533 ft 168 kts 51°
2026-04-28 15:19 55.78140 -4.60234 2385 ft 163 kts 47°
2026-04-28 15:19 55.78906 -4.58816 2156 ft 154 kts 48°
2026-04-28 15:19 55.79609 -4.57505 1956 ft 142 kts 49°
2026-04-28 15:19 55.80264 -4.56278 1788 ft 135 kts 48°
2026-04-28 15:20 55.80895 -4.55098 1654 ft 134 kts 49°
2026-04-28 15:20 55.81561 -4.53844 1471 ft 139 kts 47°
2026-04-28 15:20 55.82215 -4.52616 1297 ft 137 kts 47°
2026-04-28 15:20 55.82870 -4.51403 1095 ft 135 kts 47°
2026-04-28 15:21 55.83510 -4.50210 914 ft 132 kts 47°
2026-04-28 15:21 55.84137 -4.49022 741 ft 130 kts 49°
2026-04-28 15:21 55.84790 -4.47815 518 ft 138 kts 48°
2026-04-28 15:21 55.85433 -4.46627 336 ft 131 kts 47°
2026-04-28 15:22 55.86051 -4.45457 174 ft 130 kts 47°
2026-04-28 15:22 55.86684 -4.44282 41 ft 127 kts 47°
2026-04-28 15:22 55.87230 -4.43263 28 ft 98 kts 46°
2026-04-28 15:22 55.87617 -4.42543 28 ft 63 kts 46°
2026-04-28 15:23 55.87832 -4.42140 28 ft 37 kts 46°
2026-04-28 15:23 55.87917 -4.41935 28 ft 11 kts 101°
2026-04-28 15:23 55.87864 -4.41854 28 ft 11 kts 172°
2026-04-28 15:23 55.87793 -4.41872 28 ft 10 kts 197°
2026-04-28 15:24 55.87736 -4.41942 28 ft 10 kts 224°
2026-04-28 15:24 55.87689 -4.42030 28 ft 10 kts 227°
2026-04-28 15:24 55.87631 -4.42139 28 ft 18 kts 226°
2026-04-28 15:24 55.87530 -4.42328 28 ft 22 kts 227°
2026-04-28 15:25 55.87427 -4.42521 28 ft 21 kts 226°
2026-04-28 15:25 55.87305 -4.42644 28 ft 20 kts 199°
2026-04-28 15:25 55.87175 -4.42735 28 ft 20 kts 201°
2026-04-28 15:25 55.87048 -4.42819 28 ft 19 kts 200°
2026-04-28 15:26 55.86928 -4.42913 28 ft 19 kts 207°
2026-04-28 15:26 55.86843 -4.43063 28 ft 18 kts 260°
2026-04-28 15:26 55.86819 -4.43204 28 ft 9 kts 253°
2026-04-28 15:26 55.86807 -4.43274 28 ft 5 kts 246°
2026-04-28 15:27 55.86774 -4.43290 28 ft 5 kts 165°
2026-04-28 15:27 55.86738 -4.43271 28 ft 5 kts 165°
2026-04-28 15:27 55.86702 -4.43254 28 ft 5 kts 165°
2026-04-28 15:27 55.86683 -4.43244 28 ft 2 kts 164°
2026-04-28 15:28 55.86668 -4.43236 28 ft 2 kts 163°
2026-04-28 15:28 55.86654 -4.43225 28 ft 2 kts 137°
2026-04-28 15:28 55.86654 -4.43195 28 ft 2 kts 83°
2026-04-28 15:28 55.86657 -4.43166 28 ft 2 kts 75°
2026-04-28 15:29 55.86661 -4.43144 28 ft 1 kts 74°
2026-04-28 15:29 55.86661 -4.43141 28 ft 0 kts 74°
2026-04-28 16:35 55.86661 -4.43145 28 ft 2 kts 74°
2026-04-28 16:35 55.86651 -4.43186 28 ft 4 kts 51°
2026-04-28 16:35 55.86632 -4.43212 28 ft 4 kts
2026-04-28 16:36 55.86619 -4.43211 28 ft 0 kts 343°
2026-04-28 16:38 55.86628 -4.43216 28 ft 6 kts 343°
2026-04-28 16:38 55.86676 -4.43242 28 ft 7 kts 343°
2026-04-28 16:38 55.86725 -4.43267 28 ft 8 kts 343°
2026-04-28 16:38 55.86778 -4.43301 28 ft 8 kts 326°
2026-04-28 16:39 55.86788 -4.43393 28 ft 8 kts 260°
2026-04-28 16:39 55.86772 -4.43493 28 ft 10 kts 254°
2026-04-28 16:39 55.86745 -4.43663 28 ft 17 kts 255°
2026-04-28 16:39 55.86690 -4.43837 28 ft 16 kts 225°
2026-04-28 16:40 55.86612 -4.43981 28 ft 16 kts 226°
2026-04-28 16:40 55.86537 -4.44119 28 ft 15 kts 228°
2026-04-28 16:40 55.86466 -4.44254 28 ft 15 kts 227°
2026-04-28 16:40 55.86398 -4.44382 28 ft 14 kts 226°
2026-04-28 16:41 55.86333 -4.44505 28 ft 13 kts 226°
2026-04-28 16:41 55.86270 -4.44622 28 ft 13 kts 226°
2026-04-28 16:41 55.86278 -4.44755 28 ft 13 kts 313°
2026-04-28 16:41 55.86342 -4.44856 28 ft 12 kts 334°
2026-04-28 16:42 55.86409 -4.44796 28 ft 2 kts 46°
2026-04-28 16:42 55.86449 -4.44723 28 ft 35 kts 46°
2026-04-28 16:42 55.86807 -4.44052 28 ft 112 kts 46°
2026-04-28 16:42 55.87487 -4.42782 129 ft 163 kts 48°
2026-04-28 16:43 55.88264 -4.41290 1052 ft 160 kts 48°
2026-04-28 16:43 55.89019 -4.39861 2047 ft 158 kts 48°
2026-04-28 16:43 55.89858 -4.38283 2492 ft 191 kts 48°
2026-04-28 16:43 55.90853 -4.36430 2750 ft 220 kts 46°
2026-04-28 16:44 55.91982 -4.34419 3197 ft 243 kts 46°
2026-04-28 16:44 55.93279 -4.32341 3899 ft 257 kts 32°
2026-04-28 16:44 55.94973 -4.31539 5159 ft 254 kts
2026-04-28 16:44 55.96734 -4.32211 5681 ft 269 kts 335°
2026-04-28 16:45 55.98078 -4.34486 5885 ft 274 kts 300°
2026-04-28 16:45 55.98533 -4.37777 5975 ft 285 kts 268°
2026-04-28 16:45 55.97974 -4.41173 6023 ft 283 kts 244°
2026-04-28 16:45 55.97091 -4.44290 5942 ft 285 kts 243°
2026-04-28 16:46 55.96229 -4.47458 6003 ft 282 kts 244°
2026-04-28 16:46 55.95367 -4.50613 5975 ft 284 kts 240°
2026-04-28 16:46 55.94217 -4.53463 5910 ft 284 kts 225°
2026-04-28 16:46 55.92766 -4.55811 5986 ft 279 kts 219°
2026-04-28 16:47 55.91323 -4.58123 6065 ft 282 kts 222°
2026-04-28 16:47 55.89898 -4.60550 6009 ft 284 kts 223°
2026-04-28 16:47 55.88488 -4.63015 6007 ft 284 kts 223°
2026-04-28 16:47 55.87102 -4.65503 6029 ft 283 kts 224°
2026-04-28 16:48 55.85677 -4.67926 5967 ft 284 kts 216°
2026-04-28 16:48 55.84033 -4.69839 5988 ft 281 kts 210°
2026-04-28 16:48 55.82375 -4.71670 6011 ft 280 kts 210°
2026-04-28 16:48 55.80721 -4.73506 5977 ft 281 kts 210°
2026-04-28 16:49 55.78980 -4.75075 5925 ft 279 kts 194°
2026-04-28 16:49 55.77076 -4.75544 5896 ft 275 kts 178°
2026-04-28 16:49 55.75176 -4.75491 5938 ft 271 kts 176°
2026-04-28 16:49 55.73288 -4.75472 5951 ft 271 kts 178°
2026-04-28 16:50 55.71397 -4.75519 5942 ft 272 kts 178°
2026-04-28 16:50 55.69505 -4.75584 5955 ft 271 kts 179°
2026-04-28 16:50 55.67626 -4.75663 5973 ft 270 kts 179°
2026-04-28 16:50 55.65825 -4.75746 5938 ft 272 kts 179°
2026-04-28 16:51 55.63934 -4.75831 5952 ft 272 kts 178°
2026-04-28 16:51 55.62074 -4.75656 5952 ft 270 kts 167°
2026-04-28 16:51 55.60412 -4.74331 5999 ft 261 kts 136°
2026-04-28 16:51 55.59434 -4.71647 6142 ft 266 kts 104°
2026-04-28 16:52 55.58975 -4.68497 7143 ft 262 kts 99°
2026-04-28 16:52 55.58746 -4.65342 8229 ft 259 kts 94°
2026-04-28 16:52 55.58576 -4.62132 9050 ft 266 kts 94°
2026-04-28 16:52 55.58401 -4.58858 9955 ft 269 kts 94°
2026-04-28 16:53 55.58214 -4.55535 10802 ft 274 kts 94°
2026-04-28 16:53 55.58011 -4.52048 11114 ft 298 kts 94°
2026-04-28 16:53 55.57783 -4.48249 11327 ft 324 kts 94°
2026-04-28 16:53 55.57528 -4.44135 11516 ft 348 kts 94°
2026-04-28 16:54 55.57249 -4.39756 11722 ft 368 kts 94°
2026-04-28 16:54 55.56951 -4.35202 12251 ft 376 kts 94°
2026-04-28 16:54 55.56648 -4.30648 12970 ft 379 kts 94°
2026-04-28 16:54 55.56439 -4.27524 13485 ft 380 kts 94°
2026-04-28 16:55 55.56023 -4.21370 14446 ft 383 kts 94°
2026-04-28 16:55 55.55705 -4.16688 15048 ft 386 kts 94°
2026-04-28 16:55 55.55382 -4.11958 15658 ft 389 kts 94°
2026-04-28 16:55 55.55055 -4.07178 16280 ft 392 kts 94°
2026-04-28 16:56 55.54735 -4.02533 16863 ft 395 kts 94°
2026-04-28 16:56 55.54419 -3.97977 17422 ft 398 kts 94°
2026-04-28 16:56 55.54091 -3.93264 17961 ft 401 kts 94°
2026-04-28 16:56 55.53747 -3.88349 18530 ft 405 kts 93°
2026-04-28 16:57 55.53409 -3.83563 19089 ft 406 kts 93°
2026-04-28 16:57 55.53080 -3.78922 19561 ft 409 kts 93°
2026-04-28 16:57 55.52723 -3.73917 20011 ft 413 kts 93°
2026-04-28 16:57 55.52392 -3.69288 20432 ft 416 kts 94°
2026-04-28 16:58 55.52030 -3.64275 20897 ft 418 kts 94°
2026-04-28 16:58 55.51704 -3.59784 21294 ft 421 kts 94°
2026-04-28 16:58 55.51360 -3.55056 21691 ft 424 kts 94°
2026-04-28 16:58 55.50996 -3.50091 22091 ft 427 kts 94°
2026-04-28 16:59 55.50607 -3.44814 22512 ft 430 kts 94°
2026-04-28 16:59 55.50225 -3.39646 22924 ft 432 kts 94°
2026-04-28 16:59 55.49831 -3.34375 23325 ft 435 kts 94°
2026-04-28 16:59 55.49336 -3.29074 23747 ft 439 kts 97°
2026-04-28 17:00 55.48748 -3.23777 24133 ft 442 kts 98°
2026-04-28 17:00 55.48140 -3.18451 24466 ft 444 kts 97°
2026-04-28 17:00 55.47550 -3.13108 24856 ft 444 kts 97°
2026-04-28 17:00 55.46973 -3.07762 25179 ft 446 kts 97°
2026-04-28 17:01 55.46489 -3.02357 25441 ft 447 kts 91°
2026-04-28 17:01 55.46414 -2.97053 25723 ft 446 kts 85°
2026-04-28 17:01 55.46715 -2.92149 26001 ft 445 kts 78°
2026-04-28 17:01 55.47242 -2.86941 26288 ft 446 kts 77°
2026-04-28 17:02 55.47788 -2.81552 26528 ft 448 kts 78°
2026-04-28 17:02 55.48146 -2.77968 26688 ft 449 kts 78°
2026-04-28 17:02 55.48809 -2.71217 27128 ft 447 kts 78°
2026-04-28 17:02 55.49320 -2.65900 27515 ft 445 kts 78°
2026-04-28 17:03 55.50325 -2.55282 28011 ft 448 kts 78°
2026-04-28 17:03 55.50831 -2.49857 28304 ft 448 kts 78°
2026-04-28 17:03 55.51335 -2.44431 28695 ft 446 kts 78°
2026-04-28 17:04 55.52325 -2.33659 29463 ft 443 kts 78°
2026-04-28 17:04 55.52816 -2.28293 29791 ft 443 kts 78°